Weather Roundup
Issued by NWS Chicago, IL

Home | Current Version | Previous Version | Graphics & Text | Print | Product List | Glossary On
Versions: 1 2 3 4 5 6 7 8 9 10 11 12 13 14 15 16 17 18 19 20 21 22 23 24 25 26 27 28 29 30 31 32 33 34 35 36 37 38 39 40 41 42 43 44 45 46 47 48 49 50
000
NZUS59 KLOT 091312
HRRLOT

CHICAGO AREA WEATHER ROUNDUP
NATIONAL WEATHER SERVICE CHICAGO/ROMEOVILLE IL
700 AM CST FRI DEC 09 2016

NOTE: "FAIR" INDICATES FEW OR NO CLOUDS BELOW 12,000 FEET WITH NO
SIGNIFICANT WEATHER AND/OR OBSTRUCTIONS TO VISIBILITY.

* THESE STATIONS ARE NOT UNDER NWS QUALITY CONTROL. THEY ALSO MAY NOT
  REPORT WEATHER SUCH AS PRECIPITATION OR FOG.

ILZ005-006-012>014-019>023-091400-
NORTHEAST ILLINOIS

CITY           SKY/WX    TMP DP  RH WIND       PRES   REMARKS
OHARE          FLURRIES  23  17  78 W10       30.48R WCI  12
MIDWAY         FLURRIES  23  15  71 W10       30.49R WCI  12
AURORA         CLOUDY    22  16  78 W13       30.51R WCI  10
LANSING*       CLOUDY    22  19  86 W8        30.50R WCI  13
JOLIET*        CLOUDY    23  18  81 W6        30.52R WCI  16
WAUKEGAN       MOCLDY    22  17  81 NW6       30.47R WCI  14
DUPAGE AIRPORT CLOUDY    22  15  75 W10       30.49R WCI  11
WHEELING       CLOUDY    23  16  74 W7        30.50R WCI  15
KANKAKEE*      MIX PCPN  22  17  79 W9        30.53R WCI  12
MORRIS*        CLOUDY    22  17  81 W10       30.52R WCI  11
LEWIS AIRPORT* CLOUDY    22  20  92 W9        30.51R WCI  11
NORTHERLY ISL    N/A     24  18  77 W8          N/A  WCI  15
$$

WIZ051-052-058>065-066-070>072-091400-
SOUTHEAST WISCONSIN

CITY           SKY/WX    TMP DP  RH WIND       PRES   REMARKS
MILWAUKEE      CLEAR     22  14  71 NW12      30.46R WCI  10
KENOSHA*       CLEAR     19  14  81 W7        30.47R WCI  10
RACINE*        CLEAR     20  14  77 W7        30.47R WCI  11
BURLINGTON     CLEAR     25  21  83 CALM      30.47R
WAUKESHA       CLEAR     18  14  86 W14       30.45S WCI   4
WEST BEND      CLEAR     19  16  86 NW9       30.43R WCI   9
$$

INZ001>003-010>013-019-020-091400-
NORTHWEST INDIANA

CITY           SKY/WX    TMP DP  RH WIND       PRES   REMARKS
GARY*          CLOUDY    25  19  80 W10       30.50R WCI  15
MICHIGAN CITY* NOT AVBL
RENSSELAER*    NOT AVBL
VALPARAISO     CLOUDY    23  17  78 MISG      30.48R
$$

LMZ740>746-091400-
SOUTHERN LAKE MICHIGAN

STATION/POSITION TIME  SKY/WX   TEMP WIND        PRES    VSBY
                                AIR  DIR/SP/G
                 (UTC)          (F)  (DEG/KT/KT) (MB)    (MI)
HARRISON CRIB    1240            25  290/ 15/ 18   N/A
BURNHAM HARBOR   1300            24  290/  8/ 12   N/A
CALUMET HARBOR   1248            23  260/  4/  7 1031.7R
BURNS HARBOR     1240            27  280/ 17/ 22 1032.2R
MICHIGAN CITY    NOT AVBL
$$

ABBREVIATIONS USED IN REMARKS
   TC - TEMPERATURE IN CELSIUS
  WCI - WIND CHILL INDEX
   HX - HEAT INDEX
  VSB - VISIBILITY
$$




USA.gov is the U.S. government's official web portal to all federal, state and local government web resources and services.